Time,TemperatureF,DewpointF,PressureIn,WindDirection,WindDirectionDegrees,WindSpeedMPH,WindSpeedGustMPH,Humidity,HourlyPrecipIn,Conditions,Clouds,dailyrainin,SoftwareType,DateUTC
2013-01-28 00:04:00,28.0,27.0,30.00,South,169,5.0,-999.0,94,-99.99,,,-99.99,,2013-01-28 05:04:00,
2013-01-28 00:11:00,28.0,27.0,30.00,South,169,5.0,-999.0,94,-99.99,,,-99.99,,2013-01-28 05:11:00,
2013-01-28 00:21:00,28.0,27.0,29.99,South,187,5.0,-999.0,94,-99.99,,,-99.99,,2013-01-28 05:21:00,
2013-01-28 00:32:00,28.0,26.0,29.99,South,180,4.0,-999.0,93,-99.99,,,-99.99,,2013-01-28 05:32:00,
2013-01-28 00:42:00,28.0,26.0,29.99,South,180,4.0,-999.0,93,-99.99,,,-99.99,,2013-01-28 05:42:00,
2013-01-28 00:52:00,28.0,26.0,29.98,SSE,153,4.0,-999.0,93,-99.99,,,-99.99,,2013-01-28 05:52:00,
2013-01-28 01:02:00,29.0,27.0,29.97,South,173,3.0,-999.0,94,-99.99,,,-99.99,,2013-01-28 06:02:00,
2013-01-28 01:11:00,29.0,27.0,29.97,South,173,3.0,-999.0,94,-99.99,,,-99.99,,2013-01-28 06:11:00,
2013-01-28 01:22:00,29.0,27.0,29.96,South,187,2.0,-999.0,94,-99.99,,,-99.99,,2013-01-28 06:22:00,
2013-01-28 01:32:00,29.0,27.0,29.96,SE,135,3.0,-999.0,94,-99.99,,,-99.99,,2013-01-28 06:32:00,
2013-01-28 01:42:00,29.0,27.0,29.96,SE,135,3.0,-999.0,94,-99.99,,,-99.99,,2013-01-28 06:42:00,
2013-01-28 01:52:00,28.0,27.0,29.95,SE,126,1.0,-999.0,94,-99.99,,,-99.99,,2013-01-28 06:52:00,
2013-01-28 02:02:00,28.0,27.0,29.94,SSE,152,2.0,-999.0,94,-99.99,,,-99.99,,2013-01-28 07:02:00,
2013-01-28 02:11:00,28.0,27.0,29.94,SSE,152,2.0,-999.0,94,-99.99,,,-99.99,,2013-01-28 07:11:00,
2013-01-28 02:21:00,29.0,27.0,29.94,SSE,159,3.0,-999.0,94,-99.99,,,-99.99,,2013-01-28 07:21:00,
2013-01-28 02:32:00,29.0,27.0,29.94,SSE,159,3.0,-999.0,94,-99.99,,,-99.99,,2013-01-28 07:32:00,
2013-01-28 02:42:00,29.0,27.0,29.94,SSE,159,3.0,-999.0,94,-99.99,,,-99.99,,2013-01-28 07:42:00,
2013-01-28 02:51:00,29.0,27.0,29.93,SE,136,1.0,-999.0,94,-99.99,,,-99.99,,2013-01-28 07:51:00,
2013-01-28 03:01:00,29.0,27.0,29.93,SE,142,1.0,-999.0,94,-99.99,,,-99.99,,2013-01-28 08:01:00,
2013-01-28 03:11:00,29.0,27.0,29.93,SE,142,1.0,-999.0,94,-99.99,,,-99.99,,2013-01-28 08:11:00,
2013-01-28 03:21:00,28.0,27.0,29.92,SE,136,0.0,-999.0,94,-99.99,,,-99.99,,2013-01-28 08:21:00,
2013-01-28 03:32:00,28.0,27.0,29.91,SE,138,1.0,-999.0,94,-99.99,,,-99.99,,2013-01-28 08:32:00,
2013-01-28 03:42:00,28.0,27.0,29.91,SE,138,1.0,-999.0,94,-99.99,,,-99.99,,2013-01-28 08:42:00,
2013-01-28 03:52:00,29.0,28.0,29.91,ESE,119,1.0,-999.0,95,-99.99,,,-99.99,,2013-01-28 08:52:00,
2013-01-28 04:02:00,29.0,28.0,29.91,ESE,123,0.0,-999.0,95,-99.99,,,-99.99,,2013-01-28 09:02:00,
2013-01-28 04:11:00,29.0,28.0,29.91,ESE,123,0.0,-999.0,95,-99.99,,,-99.99,,2013-01-28 09:11:00,
2013-01-28 04:21:00,29.0,28.0,29.89,ESE,109,0.0,-999.0,95,-99.99,,,-99.99,,2013-01-28 09:21:00,
2013-01-28 04:32:00,29.0,28.0,29.88,East,93,0.0,-999.0,95,-99.99,,,-99.99,,2013-01-28 09:32:00,
2013-01-28 04:42:00,29.0,28.0,29.88,East,93,0.0,-999.0,95,-99.99,,,-99.99,,2013-01-28 09:42:00,
2013-01-28 04:51:00,29.0,28.0,29.88,ENE,61,1.0,-999.0,95,-99.99,,,-99.99,,2013-01-28 09:51:00,
2013-01-28 05:02:00,29.0,28.0,29.87,East,80,0.0,-999.0,95,-99.99,,,-99.99,,2013-01-28 10:02:00,
2013-01-28 05:11:00,29.0,28.0,29.87,East,80,0.0,-999.0,95,-99.99,,,-99.99,,2013-01-28 10:11:00,
2013-01-28 05:21:00,29.0,28.0,29.87,ESE,103,0.0,-999.0,95,-99.99,,,-99.99,,2013-01-28 10:21:00,
2013-01-28 05:32:00,29.0,28.0,29.87,ESE,103,0.0,-999.0,95,-99.99,,,-99.99,,2013-01-28 10:32:00,
2013-01-28 05:41:00,29.0,28.0,29.87,ESE,103,0.0,-999.0,95,-99.99,,,-99.99,,2013-01-28 10:41:00,
2013-01-28 05:51:00,29.0,28.0,29.86,ESE,103,0.0,-999.0,95,-99.99,,,-99.99,,2013-01-28 10:51:00,
2013-01-28 06:02:00,29.0,28.0,29.86,ESE,103,0.0,-999.0,95,-99.99,,,-99.99,,2013-01-28 11:02:00,
2013-01-28 06:11:00,29.0,28.0,29.86,ESE,103,0.0,-999.0,95,-99.99,,,-99.99,,2013-01-28 11:11:00,
2013-01-28 06:22:00,29.0,28.0,29.86,ESE,103,0.0,-999.0,95,-99.99,,,-99.99,,2013-01-28 11:22:00,
2013-01-28 06:32:00,29.0,28.0,29.86,East,101,0.0,-999.0,95,-99.99,,,-99.99,,2013-01-28 11:32:00,
2013-01-28 06:42:00,29.0,28.0,29.86,East,101,0.0,-999.0,95,-99.99,,,-99.99,,2013-01-28 11:42:00,
2013-01-28 06:52:00,29.0,28.0,29.86,East,101,0.0,-999.0,95,-99.99,,,-99.99,,2013-01-28 11:52:00,
2013-01-28 07:03:00,29.0,28.0,29.86,East,88,0.0,-999.0,95,-99.99,,,-99.99,,2013-01-28 12:03:00,
2013-01-28 07:12:00,29.0,28.0,29.86,East,88,0.0,-999.0,95,-99.99,,,-99.99,,2013-01-28 12:12:00,
2013-01-28 07:23:00,29.0,28.0,29.86,East,88,0.0,-999.0,95,-99.99,,,-99.99,,2013-01-28 12:23:00,
2013-01-28 07:33:00,29.0,28.0,29.85,East,88,0.0,-999.0,95,-99.99,,,-99.99,,2013-01-28 12:33:00,
2013-01-28 07:42:00,29.0,28.0,29.85,East,88,0.0,-999.0,95,-99.99,,,-99.99,,2013-01-28 12:42:00,
2013-01-28 07:52:00,29.0,28.0,29.85,East,88,0.0,-999.0,95,-99.99,,,-99.99,,2013-01-28 12:52:00,
2013-01-28 08:03:00,28.0,27.0,29.85,East,91,0.0,-999.0,95,-99.99,,,-99.99,,2013-01-28 13:03:00,
2013-01-28 08:12:00,28.0,27.0,29.85,East,91,0.0,-999.0,95,-99.99,,,-99.99,,2013-01-28 13:12:00,
2013-01-28 08:23:00,28.0,27.0,29.85,ENE,69,0.0,-999.0,95,-99.99,,,-99.99,,2013-01-28 13:23:00,
2013-01-28 08:33:00,28.0,27.0,29.85,ENE,69,0.0,-999.0,95,-99.99,,,-99.99,,2013-01-28 13:33:00,
2013-01-28 08:42:00,28.0,27.0,29.85,ENE,69,0.0,-999.0,95,-99.99,,,-99.99,,2013-01-28 13:42:00,
2013-01-28 08:52:00,28.0,27.0,29.85,ENE,69,0.0,-999.0,95,-99.99,,,-99.99,,2013-01-28 13:52:00,
2013-01-28 09:03:00,28.0,27.0,29.85,ENE,69,0.0,-999.0,95,-99.99,,,-99.99,,2013-01-28 14:03:00,
2013-01-28 09:12:00,28.0,27.0,29.85,ENE,69,0.0,-999.0,95,-99.99,,,-99.99,,2013-01-28 14:12:00,
2013-01-28 09:22:00,28.0,27.0,29.85,ENE,69,0.0,-999.0,95,-99.99,,,-99.99,,2013-01-28 14:22:00,
2013-01-28 09:33:00,28.0,27.0,29.86,ENE,69,0.0,-999.0,95,-99.99,,,-99.99,,2013-01-28 14:33:00,
2013-01-28 09:43:00,28.0,27.0,29.86,ENE,69,0.0,-999.0,95,-99.99,,,-99.99,,2013-01-28 14:43:00,
2013-01-28 09:52:00,28.0,27.0,29.86,ENE,69,0.0,-999.0,95,-99.99,,,-99.99,,2013-01-28 14:52:00,
2013-01-28 10:03:00,28.0,27.0,29.86,ENE,69,0.0,-999.0,95,-99.99,,,-99.99,,2013-01-28 15:03:00,
2013-01-28 10:12:00,28.0,27.0,29.86,ENE,69,0.0,-999.0,95,-99.99,,,-99.99,,2013-01-28 15:12:00,
2013-01-28 10:23:00,29.0,28.0,29.86,ENE,65,0.0,-999.0,95,-99.99,,,-99.99,,2013-01-28 15:23:00,
2013-01-28 10:33:00,29.0,27.0,29.88,ENE,63,0.0,-999.0,94,-99.99,,,-99.99,,2013-01-28 15:33:00,
2013-01-28 10:43:00,29.0,27.0,29.88,ENE,63,0.0,-999.0,94,-99.99,,,-99.99,,2013-01-28 15:43:00,
2013-01-28 10:52:00,29.0,27.0,29.87,ENE,62,1.0,-999.0,94,-99.99,,,-99.99,,2013-01-28 15:52:00,
2013-01-28 11:04:00,30.0,28.0,29.89,ENE,62,0.0,-999.0,94,-99.99,,,-99.99,,2013-01-28 16:04:00,
2013-01-28 11:12:00,30.0,28.0,29.89,ENE,62,0.0,-999.0,94,-99.99,,,-99.99,,2013-01-28 16:12:00,
2013-01-28 11:22:00,30.0,28.0,29.89,NE,50,0.0,-999.0,93,-99.99,,,-99.99,,2013-01-28 16:22:00,
2013-01-28 11:32:00,30.0,28.0,29.90,NW,305,1.0,-999.0,93,-99.99,,,-99.99,,2013-01-28 16:32:00,
2013-01-28 11:43:00,30.0,28.0,29.90,NW,305,1.0,-999.0,93,-99.99,,,-99.99,,2013-01-28 16:43:00,
2013-01-28 11:52:00,30.0,28.0,29.91,NW,305,0.0,-999.0,93,-99.99,,,-99.99,,2013-01-28 16:52:00,
2013-01-28 12:02:00,31.0,29.0,29.91,NW,306,1.0,-999.0,92,-99.99,,,-99.99,,2013-01-28 17:02:00,
2013-01-28 12:12:00,31.0,29.0,29.91,NW,306,1.0,-999.0,92,-99.99,,,-99.99,,2013-01-28 17:12:00,
2013-01-28 12:23:00,31.0,29.0,29.91,NW,308,1.0,-999.0,91,-99.99,,,-99.99,,2013-01-28 17:23:00,
2013-01-28 12:32:00,32.0,30.0,29.91,NW,313,0.0,-999.0,91,-99.99,,,-99.99,,2013-01-28 17:32:00,
2013-01-28 12:42:00,32.0,30.0,29.91,NW,313,0.0,-999.0,91,-99.99,,,-99.99,,2013-01-28 17:42:00,
2013-01-28 12:52:00,33.0,30.0,29.90,NW,311,1.0,-999.0,90,-99.99,,,-99.99,,2013-01-28 17:52:00,
2013-01-28 13:03:00,33.0,30.0,29.89,NNE,26,3.0,-999.0,88,-99.99,,,-99.99,,2013-01-28 18:03:00,
2013-01-28 13:12:00,33.0,30.0,29.89,NNE,26,3.0,-999.0,88,-99.99,,,-99.99,,2013-01-28 18:12:00,
2013-01-28 13:23:00,33.0,30.0,29.89,NNE,26,3.0,-999.0,88,-99.99,,,-99.99,,2013-01-28 18:23:00,
2013-01-28 13:33:00,33.0,29.0,29.89,North,11,3.0,-999.0,86,-99.99,,,-99.99,,2013-01-28 18:33:00,
2013-01-28 13:43:00,33.0,29.0,29.89,North,11,3.0,-999.0,86,-99.99,,,-99.99,,2013-01-28 18:43:00,
2013-01-28 13:52:00,33.0,29.0,29.89,North,11,3.0,-999.0,86,-99.99,,,-99.99,,2013-01-28 18:52:00,
2013-01-28 14:02:00,34.0,30.0,29.87,North,10,4.0,-999.0,84,-99.99,,,-99.99,,2013-01-28 19:02:00,
2013-01-28 14:12:00,34.0,30.0,29.87,North,10,4.0,-999.0,84,-99.99,,,-99.99,,2013-01-28 19:12:00,
2013-01-28 14:22:00,33.0,29.0,29.88,NNE,13,3.0,-999.0,85,-99.99,,,-99.99,,2013-01-28 19:22:00,
2013-01-28 14:32:00,34.0,30.0,29.88,NE,50,1.0,-999.0,85,-99.99,,,-99.99,,2013-01-28 19:32:00,
2013-01-28 14:42:00,34.0,30.0,29.88,NE,50,1.0,-999.0,85,-99.99,,,-99.99,,2013-01-28 19:42:00,
2013-01-28 14:52:00,35.0,31.0,29.87,East,96,1.0,-999.0,84,-99.99,,,-99.99,,2013-01-28 19:52:00,
2013-01-28 15:02:00,35.0,30.0,29.88,East,94,0.0,-999.0,83,-99.99,,,-99.99,,2013-01-28 20:02:00,
2013-01-28 15:12:00,35.0,30.0,29.88,East,94,0.0,-999.0,83,-99.99,,,-99.99,,2013-01-28 20:12:00,
2013-01-28 15:22:00,35.0,30.0,29.89,East,94,0.0,-999.0,83,-99.99,,,-99.99,,2013-01-28 20:22:00,
2013-01-28 15:33:00,34.0,29.0,29.91,ESE,109,0.0,-999.0,83,-99.99,,,-99.99,,2013-01-28 20:33:00,
2013-01-28 15:42:00,34.0,29.0,29.91,ESE,109,0.0,-999.0,83,-99.99,,,-99.99,,2013-01-28 20:42:00,
2013-01-28 15:52:00,34.0,30.0,29.91,East,95,0.0,-999.0,85,-99.99,,,-99.99,,2013-01-28 20:52:00,
2013-01-28 16:03:00,34.0,30.0,29.91,East,95,0.0,-999.0,85,-99.99,,,-99.99,,2013-01-28 21:03:00,
2013-01-28 16:12:00,34.0,30.0,29.91,East,95,0.0,-999.0,85,-99.99,,,-99.99,,2013-01-28 21:12:00,
2013-01-28 16:22:00,34.0,30.0,29.90,East,94,0.0,-999.0,85,-99.99,,,-99.99,,2013-01-28 21:22:00,
2013-01-28 16:33:00,34.0,30.0,29.90,East,92,0.0,-999.0,86,-99.99,,,-99.99,,2013-01-28 21:33:00,
2013-01-28 16:43:00,34.0,30.0,29.90,East,92,0.0,-999.0,86,-99.99,,,-99.99,,2013-01-28 21:43:00,
2013-01-28 16:52:00,34.0,30.0,29.91,NE,39,3.0,-999.0,86,-99.99,,,-99.99,,2013-01-28 21:52:00,
2013-01-28 17:02:00,33.0,30.0,29.92,NE,44,2.0,-999.0,88,-99.99,,,-99.99,,2013-01-28 22:02:00,
2013-01-28 17:11:00,33.0,30.0,29.92,NE,44,2.0,-999.0,88,-99.99,,,-99.99,,2013-01-28 22:11:00,
2013-01-28 17:23:00,33.0,30.0,29.93,NE,46,0.0,-999.0,89,-99.99,,,-99.99,,2013-01-28 22:23:00,
2013-01-28 17:32:00,33.0,30.0,29.93,NE,46,0.0,-999.0,89,-99.99,,,-99.99,,2013-01-28 22:32:00,
2013-01-28 17:42:00,33.0,30.0,29.93,NE,46,0.0,-999.0,89,-99.99,,,-99.99,,2013-01-28 22:42:00,
2013-01-28 17:52:00,33.0,30.0,29.93,NE,46,0.0,-999.0,89,-99.99,,,-99.99,,2013-01-28 22:52:00,
2013-01-28 18:02:00,32.0,29.0,29.93,East,79,1.0,-999.0,90,-99.99,,,-99.99,,2013-01-28 23:02:00,
2013-01-28 18:12:00,32.0,29.0,29.93,East,79,1.0,-999.0,90,-99.99,,,-99.99,,2013-01-28 23:12:00,
2013-01-28 18:22:00,32.0,30.0,29.93,ENE,63,1.0,-999.0,91,-99.99,,,-99.99,,2013-01-28 23:22:00,
2013-01-28 18:32:00,31.0,29.0,29.93,ENE,65,1.0,-999.0,92,-99.99,,,-99.99,,2013-01-28 23:32:00,
2013-01-28 18:42:00,31.0,29.0,29.93,ENE,65,1.0,-999.0,92,-99.99,,,-99.99,,2013-01-28 23:42:00,
2013-01-28 18:52:00,31.0,29.0,29.93,ENE,65,0.0,-999.0,92,-99.99,,,-99.99,,2013-01-28 23:52:00,
2013-01-28 19:02:00,31.0,29.0,29.94,ENE,65,0.0,-999.0,92,-99.99,,,-99.99,,2013-01-29 00:02:00,
2013-01-28 19:12:00,31.0,29.0,29.94,ENE,65,0.0,-999.0,92,-99.99,,,-99.99,,2013-01-29 00:12:00,
2013-01-28 19:22:00,31.0,29.0,29.94,ENE,65,0.0,-999.0,93,-99.99,,,-99.99,,2013-01-29 00:22:00,
2013-01-28 19:32:00,31.0,29.0,29.94,ENE,66,0.0,-999.0,93,-99.99,,,-99.99,,2013-01-29 00:32:00,
2013-01-28 19:42:00,31.0,29.0,29.94,ENE,66,0.0,-999.0,93,-99.99,,,-99.99,,2013-01-29 00:42:00,
2013-01-28 19:52:00,31.0,29.0,29.94,ENE,67,0.0,-999.0,93,-99.99,,,-99.99,,2013-01-29 00:52:00,
2013-01-28 20:02:00,31.0,29.0,29.95,ENE,67,0.0,-999.0,93,-99.99,,,-99.99,,2013-01-29 01:02:00,
2013-01-28 20:12:00,31.0,29.0,29.95,ENE,67,0.0,-999.0,93,-99.99,,,-99.99,,2013-01-29 01:12:00,
2013-01-28 20:22:00,31.0,29.0,29.96,SE,144,1.0,-999.0,94,-99.99,,,-99.99,,2013-01-29 01:22:00,
2013-01-28 20:32:00,31.0,29.0,29.95,SSE,150,2.0,-999.0,93,-99.99,,,-99.99,,2013-01-29 01:32:00,
2013-01-28 20:42:00,31.0,29.0,29.95,SSE,150,2.0,-999.0,93,-99.99,,,-99.99,,2013-01-29 01:42:00,
2013-01-28 20:52:00,30.0,28.0,29.95,SE,144,2.0,-999.0,93,-99.99,,,-99.99,,2013-01-29 01:52:00,
2013-01-28 21:02:00,30.0,28.0,29.95,SSE,151,2.0,-999.0,94,-99.99,,,-99.99,,2013-01-29 02:02:00,
2013-01-28 21:12:00,30.0,28.0,29.95,SSE,151,2.0,-999.0,94,-99.99,,,-99.99,,2013-01-29 02:12:00,
2013-01-28 21:22:00,30.0,28.0,29.95,SSE,157,1.0,-999.0,94,-99.99,,,-99.99,,2013-01-29 02:22:00,
2013-01-28 21:33:00,30.0,28.0,29.93,SE,144,2.0,-999.0,94,-99.99,,,-99.99,,2013-01-29 02:33:00,
2013-01-28 21:42:00,30.0,28.0,29.93,SE,144,2.0,-999.0,94,-99.99,,,-99.99,,2013-01-29 02:42:00,
2013-01-28 21:52:00,30.0,28.0,29.92,SSE,155,3.0,-999.0,94,-99.99,,,-99.99,,2013-01-29 02:52:00,
2013-01-28 22:03:00,30.0,28.0,29.91,SSE,165,4.0,-999.0,94,-99.99,,,-99.99,,2013-01-29 03:03:00,
2013-01-28 22:12:00,30.0,28.0,29.91,SSE,165,4.0,-999.0,94,-99.99,,,-99.99,,2013-01-29 03:12:00,
2013-01-28 22:22:00,30.0,28.0,29.91,South,173,5.0,-999.0,94,-99.99,,,-99.99,,2013-01-29 03:22:00,
2013-01-28 22:32:00,30.0,28.0,29.91,South,174,5.0,-999.0,94,-99.99,,,-99.99,,2013-01-29 03:32:00,
2013-01-28 22:42:00,30.0,28.0,29.91,South,174,5.0,-999.0,94,-99.99,,,-99.99,,2013-01-29 03:42:00,
2013-01-28 22:52:00,30.0,28.0,29.91,South,183,6.0,-999.0,94,-99.99,,,-99.99,,2013-01-29 03:52:00,
2013-01-28 23:02:00,30.0,28.0,29.90,South,178,6.0,-999.0,94,-99.99,,,-99.99,,2013-01-29 04:02:00,
2013-01-28 23:11:00,30.0,28.0,29.90,South,178,6.0,-999.0,94,-99.99,,,-99.99,,2013-01-29 04:11:00,
2013-01-28 23:21:00,30.0,28.0,29.90,South,171,7.0,-999.0,94,-99.99,,,-99.99,,2013-01-29 04:21:00,
2013-01-28 23:32:00,31.0,29.0,29.89,South,180,9.0,-999.0,93,-99.99,,,-99.99,,2013-01-29 04:32:00,
2013-01-28 23:42:00,31.0,29.0,29.89,South,180,9.0,-999.0,93,-99.99,,,-99.99,,2013-01-29 04:42:00,
2013-01-28 23:52:00,31.0,29.0,29.88,South,186,7.0,-999.0,93,-99.99,,,-99.99,,2013-01-29 04:52:00,